星链-5965 (STARLINK-5965 )

导读

STARLINK-5965是美国SpaceX公司于2023年6月12日发射的星链低轨互联网通信卫星,隶属于星链(Starlink)全球卫星互联网星座,部署于约550公里的近地轨道,属于V1.5批次,配备激光星间链路,可降低对地面站依赖。星链星座旨在实现全球无缝高速宽带覆盖,可为偏远地区、海洋与航空场景提供低延迟互联网接入,该卫星承担全球网络扩容任务,助力提升星座整体通信容量与覆盖密度。

基本信息
目录编号:
56915
目录名称:
STARLINK-5965
国际标识:
2023-083AR
轨道中心:
EARTH
卫星名称:
星链-5965
卫星全名:
星链-5965 (STARLINK-5965 )
卫星状态:
在轨 (已飞行1098 天)
发射日期:
2023-06-12 UTC
国别 :
美国 (US)
星等 :
--
轨道信息
数据来源 国际轨道数据
星历时间: 2026-06-14T19:52:04+0800
10小时前
查看轨道信息
半长轴: 6861.199km
偏心率: 0.0001826
轨道倾角: 43.006°
近地点辐角 286.781°
升交点赤经 243.946°
平近点角 73.284°
近地点: 481.809km
远地点: 484.315km
周期: 94.267分钟
每日圈数: 15.275759
详细信息
固有亮度:
5
最大亮度:
2.4
卫星平台:
Starlink v1.5
覆盖范围:
全球
运营商:
太空探索技术公司
运营商所在国:
美国
制造商(研发单位):
太空探索技术公司
制造商所在国:
美国
使用方式:
暂无
卫星简介
星链(Starlink)计划是由太空探索技术公司(SpaceX)提出的一个巨型低轨卫星互联网星座项目,计划在2019年至2024年间在太空搭建由约1.2万颗卫星组成的“星链”网络,其中1584颗将部署在地球上空550千米处的近地轨道,并从2020年开始工作。该卫星仍在工作。
2D轨道图
3D轨道图
轨道高度分析图
轨道倾角分析图
轨道综合分析图
查看轨道综合分析图